| time (UTC) | temp C | wind direction | speed KPH | gust KPH | rain 1hr cm | rain 24hr cm | rain mn cm | humidity % | barometer mb |
| 20260508043659 | 7 | 119 | 0.0 | 0.0 | 0.00 | 0.28 | 0.00 | 85 | 1013.1 |
| 20260508043155 | 8 | 119 | 0.0 | 3.2 | 0.00 | 0.28 | 0.00 | 86 | 1013.1 |
| 20260508042652 | 8 | 119 | 0.0 | 3.2 | 0.00 | 0.28 | 0.00 | 85 | 1013.0 |
| 20260508042145 | 8 | 119 | 0.0 | 1.6 | 0.00 | 0.28 | 0.00 | 83 | 1012.9 |
| 20260508041646 | 8 | 119 | 1.6 | 8.0 | 0.00 | 0.28 | 0.00 | 83 | 1012.9 |
| 20260508041636 | 8 | 119 | 1.6 | 8.0 | 0.00 | 0.28 | 0.00 | 84 | 1012.9 |
| 20260508040631 | 8 | 123 | 0.0 | 3.2 | 0.00 | 0.28 | 0.00 | 81 | 1012.8 |
| 20260508040129 | 9 | 124 | 0.0 | 1.6 | 0.00 | 0.28 | 0.00 | 83 | 1013.0 |
| 20260508035614 | 9 | 124 | 0.0 | 3.2 | 0.00 | 0.28 | 0.28 | 79 | 1012.9 |
| 20260508035328 | 10 | 124 | 0.0 | 3.2 | 0.00 | 0.28 | 0.28 | 82 | 1012.8 |
| 20260508034557 | 9 | 123 | 1.6 | 8.0 | 0.00 | 0.28 | 0.28 | 82 | 1012.7 |
| 20260508034053 | 8 | 137 | 1.6 | 8.0 | 0.00 | 0.28 | 0.28 | 82 | 1012.7 |
| 20260508033548 | 7 | 123 | 0.0 | 3.2 | 0.00 | 0.28 | 0.28 | 88 | 1012.5 |
| 20260508033050 | 7 | 124 | 0.0 | 0.0 | 0.00 | 0.28 | 0.28 | 88 | 1012.4 |
| 20260508032550 | 7 | 124 | 0.0 | 0.0 | 0.00 | 0.28 | 0.28 | 88 | 1012.4 |
| 20260508032050 | 7 | 124 | 0.0 | 0.0 | 0.00 | 0.30 | 0.28 | 90 | 1012.5 |
| 20260508031538 | 7 | 124 | 0.0 | 0.0 | 0.00 | 0.30 | 0.28 | 89 | 1012.4 |
| 20260508031245 | 7 | 124 | 0.0 | 0.0 | 0.00 | 0.30 | 0.28 | 90 | 1012.3 |
| 20260508030520 | 8 | 125 | 0.0 | 0.0 | 0.00 | 0.30 | 0.28 | 89 | 1012.3 |
| 20260508030014 | 8 | 125 | 0.0 | 0.0 | 0.00 | 0.30 | 0.28 | 90 | 1012.2 |
| 20260508025504 | 8 | 125 | 0.0 | 0.0 | 0.00 | 0.33 | 0.28 | 90 | 1012.3 |
| 20260508025223 | 8 | 125 | 0.0 | 0.0 | 0.00 | 0.33 | 0.28 | 90 | 1012.3 |
| 20260508024502 | 8 | 125 | 0.0 | 0.0 | 0.00 | 0.36 | 0.28 | 89 | 1012.3 |
| 20260508024206 | 8 | 125 | 0.0 | 8.0 | 0.00 | 0.36 | 0.28 | 88 | 1012.3 |
| 20260508023444 | 8 | 125 | 0.0 | 8.0 | 0.00 | 0.36 | 0.28 | 86 | 1012.2 |
| 20260508023202 | 8 | 139 | 0.0 | 3.2 | 0.00 | 0.36 | 0.28 | 86 | 1012.1 |
| 20260508022709 | 9 | 139 | 0.0 | 0.0 | 0.00 | 0.36 | 0.28 | 86 | 1011.9 |
| 20260508021936 | 9 | 139 | 0.0 | 3.2 | 0.00 | 0.36 | 0.28 | 85 | 1011.9 |
| 20260508021443 | 9 | 139 | 0.0 | 3.2 | 0.00 | 0.36 | 0.28 | 85 | 1011.7 |
| 20260508021345 | 9 | 143 | 0.0 | 1.6 | 0.00 | 0.36 | 0.28 | 87 | 1011.7 |
| 20260508020357 | 9 | 143 | 0.0 | 1.6 | 0.00 | 0.36 | 0.28 | 86 | 1011.6 |
| 20260508015843 | 8 | 143 | 0.0 | 1.6 | 0.00 | 0.36 | 0.28 | 86 | 1011.5 |
| 20260508015329 | 8 | 143 | 0.0 | 3.2 | 0.00 | 0.36 | 0.28 | 90 | 1011.4 |
| 20260508014825 | 8 | 143 | 0.0 | 8.0 | 0.00 | 0.36 | 0.28 | 90 | 1011.3 |
| 20260508014308 | 8 | 144 | 0.0 | 8.0 | 0.00 | 0.36 | 0.28 | 91 | 1011.4 |
| 20260508013757 | 8 | 157 | 0.0 | 0.0 | 0.00 | 0.36 | 0.28 | 91 | 1011.2 |
| 20260508013233 | 8 | 157 | 0.0 | 0.0 | 0.00 | 0.36 | 0.28 | 91 | 1011.2 |
| 20260508012729 | 8 | 157 | 0.0 | 1.6 | 0.00 | 0.36 | 0.28 | 91 | 1011.1 |
| 20260508012218 | 9 | 157 | 0.0 | 3.2 | 0.00 | 0.36 | 0.28 | 92 | 1011.0 |
| 20260508011713 | 9 | 157 | 0.0 | 3.2 | 0.00 | 0.36 | 0.28 | 92 | 1010.9 |
| 20260508011211 | 9 | 155 | 0.0 | 0.0 | 0.00 | 0.36 | 0.28 | 91 | 1010.8 |
| 20260508010706 | 10 | 155 | 0.0 | 1.6 | 0.00 | 0.36 | 0.28 | 91 | 1010.8 |
| 20260508010148 | 10 | 155 | 0.0 | 1.6 | 0.00 | 0.36 | 0.28 | 92 | 1010.7 |
| 20260508005649 | 10 | 154 | 0.0 | 1.6 | 0.00 | 0.36 | 0.28 | 91 | 1010.8 |
| 20260508005152 | 10 | 154 | 0.0 | 1.6 | 0.00 | 0.36 | 0.28 | 91 | 1010.8 |
| 20260508004646 | 11 | 154 | 0.0 | 1.6 | 0.00 | 0.36 | 0.28 | 91 | 1010.8 |
| 20260508004138 | 11 | 154 | 0.0 | 0.0 | 0.00 | 0.36 | 0.28 | 90 | 1010.8 |
| 20260508003640 | 11 | 154 | 0.0 | 3.2 | 0.00 | 0.36 | 0.28 | 90 | 1010.7 |
| 20260508003124 | 11 | 154 | 0.0 | 3.2 | 0.00 | 0.36 | 0.28 | 90 | 1010.8 |
| 20260508002617 | 11 | 155 | 0.0 | 0.0 | 0.00 | 0.36 | 0.28 | 90 | 1010.7 |
| 20260508002604 | 12 | 155 | 0.0 | 0.0 | 0.00 | 0.36 | 0.28 | 90 | 1010.7 |
| 20260508001617 | 12 | 155 | 0.0 | 0.0 | 0.00 | 0.36 | 0.28 | 90 | 1010.8 |
| 20260508001059 | 12 | 155 | 0.0 | 0.0 | 0.00 | 0.36 | 0.28 | 90 | 1010.7 |
| 20260508000816 | 12 | 155 | 0.0 | 0.0 | 0.00 | 0.36 | 0.28 | 90 | 1010.8 |
| 20260508000512 | 12 | 155 | 0.0 | 0.0 | 0.00 | 0.36 | 0.28 | 91 | 1010.7 |
| 20260507235530 | 12 | 155 | 0.0 | 0.0 | 0.00 | 0.36 | 0.28 | 92 | 1010.8 |
| 20260507235031 | 13 | 155 | 0.0 | 0.0 | 0.00 | 0.36 | 0.28 | 91 | 1010.6 |
| 20260507234532 | 13 | 155 | 0.0 | 0.0 | 0.00 | 0.36 | 0.28 | 91 | 1010.5 |
| 20260507234244 | 13 | 155 | 0.0 | 0.0 | 0.00 | 0.36 | 0.28 | 91 | 1010.3 |
| 20260507233525 | 13 | 155 | 0.0 | 0.0 | 0.00 | 0.36 | 0.28 | 91 | 1010.4 |
| 20260507233012 | 13 | 155 | 0.0 | 0.0 | 0.00 | 0.36 | 0.28 | 90 | 1010.3 |
| 20260507232512 | 13 | 155 | 0.0 | 0.0 | 0.00 | 0.36 | 0.28 | 88 | 1010.2 |
| 20260507232010 | 13 | 155 | 0.0 | 0.0 | 0.00 | 0.36 | 0.28 | 88 | 1010.1 |
| 20260507231450 | 13 | 155 | 0.0 | 0.0 | 0.00 | 0.36 | 0.28 | 87 | 1010.0 |
| 20260507231208 | 14 | 155 | 0.0 | 0.0 | 0.00 | 0.36 | 0.28 | 87 | 1010.0 |
| 20260507230448 | 14 | 156 | 0.0 | 0.0 | 0.00 | 0.36 | 0.28 | 86 | 1009.9 |
| 20260507225942 | 14 | 155 | 0.0 | 0.0 | 0.00 | 0.36 | 0.28 | 86 | 1009.9 |
| 20260507225431 | 14 | 155 | 0.0 | 0.0 | 0.00 | 0.36 | 0.28 | 86 | 1009.8 |
| 20260507224919 | 14 | 155 | 0.0 | 0.0 | 0.00 | 0.36 | 0.28 | 86 | 1009.9 |
| 20260507224642 | 15 | 155 | 0.0 | 0.0 | 0.00 | 0.36 | 0.28 | 86 | 1010.0 |
| 20260507223908 | 15 | 155 | 0.0 | 8.0 | 0.00 | 0.36 | 0.28 | 85 | 1010.0 |
| 20260507223405 | 15 | 155 | 0.0 | 8.0 | 0.00 | 0.36 | 0.28 | 86 | 1009.9 |
| 20260507222832 | 15 | 146 | 0.0 | 8.0 | 0.00 | 0.36 | 0.28 | 83 | 1009.9 |
| 20260507222334 | 15 | 144 | 0.0 | 8.0 | 0.00 | 0.36 | 0.28 | 83 | 1009.8 |
| 20260507221828 | 15 | 164 | 0.0 | 8.0 | 0.00 | 0.36 | 0.28 | 84 | 1009.9 |
| 20260507221326 | 15 | 158 | 0.0 | 0.0 | 0.00 | 0.36 | 0.28 | 86 | 1009.9 |
| 20260507221041 | 15 | 158 | 0.0 | 1.6 | 0.00 | 0.36 | 0.28 | 85 | 1009.6 |
| 20260507220303 | 15 | 158 | 0.0 | 3.2 | 0.00 | 0.36 | 0.28 | 86 | 1009.7 |
| 20260507215804 | 15 | 157 | 0.0 | 3.2 | 0.00 | 0.36 | 0.28 | 86 | 1009.6 |
| 20260507215250 | 15 | 157 | 0.0 | 1.6 | 0.00 | 0.36 | 0.28 | 84 | 1009.5 |
| 20260507214743 | 15 | 157 | 0.0 | 1.6 | 0.00 | 0.36 | 0.28 | 84 | 1009.5 |
| 20260507214237 | 15 | 157 | 0.0 | 0.0 | 0.00 | 0.36 | 0.28 | 82 | 1009.5 |
| 20260507213733 | 15 | 157 | 0.0 | 1.6 | 0.00 | 0.36 | 0.28 | 83 | 1009.7 |
| 20260507213219 | 15 | 157 | 0.0 | 3.2 | 0.00 | 0.36 | 0.28 | 82 | 1009.5 |
| 20260507212703 | 15 | 157 | 0.0 | 3.2 | 0.00 | 0.36 | 0.28 | 83 | 1009.5 |
| 20260507212206 | 15 | 157 | 0.0 | 0.0 | 0.00 | 0.36 | 0.28 | 83 | 1009.6 |
| 20260507211648 | 15 | 157 | 0.0 | 0.0 | 0.00 | 0.36 | 0.28 | 83 | 1009.6 |
| 20260507211145 | 15 | 157 | 0.0 | 0.0 | 0.00 | 0.36 | 0.28 | 85 | 1009.5 |
| 20260507210646 | 15 | 157 | 0.0 | 0.0 | 0.00 | 0.36 | 0.28 | 84 | 1009.5 |
| 20260507210142 | 14 | 157 | 0.0 | 1.6 | 0.00 | 0.36 | 0.28 | 83 | 1009.5 |
| 20260507205628 | 15 | 157 | 0.0 | 3.2 | 0.00 | 0.36 | 0.28 | 85 | 1009.5 |
| 20260507205111 | 14 | 157 | 0.0 | 8.0 | 0.00 | 0.36 | 0.28 | 84 | 1009.2 |
| 20260507204559 | 14 | 154 | 0.0 | 8.0 | 0.00 | 0.36 | 0.28 | 82 | 1009.2 |
| 20260507204057 | 14 | 102 | 0.0 | 3.2 | 0.00 | 0.36 | 0.28 | 83 | 1009.2 |
| 20260507203551 | 14 | 102 | 1.6 | 9.7 | 0.00 | 0.36 | 0.28 | 83 | 1009.3 |
| 20260507203045 | 14 | 100 | 1.6 | 9.7 | 0.00 | 0.36 | 0.28 | 82 | 1009.3 |
| 20260507202539 | 14 | 86 | 0.0 | 3.2 | 0.00 | 0.36 | 0.28 | 83 | 1009.5 |
| 20260507202030 | 14 | 86 | 0.0 | 0.0 | 0.00 | 0.36 | 0.28 | 85 | 1009.5 |
| 20260507201527 | 14 | 86 | 0.0 | 0.0 | 0.00 | 0.36 | 0.28 | 87 | 1009.5 |
| 20260507201023 | 13 | 86 | 0.0 | 0.0 | 0.00 | 0.36 | 0.28 | 84 | 1009.6 |
| 20260507200518 | 13 | 86 | 0.0 | 0.0 | 0.00 | 0.36 | 0.28 | 87 | 1009.6 |
| 20260507200017 | 13 | 86 | 0.0 | 0.0 | 0.00 | 0.36 | 0.28 | 89 | 1009.9 |
| 20260507195518 | 13 | 86 | 0.0 | 0.0 | 0.03 | 0.36 | 0.28 | 88 | 1010.0 |
| 20260507195019 | 13 | 86 | 0.0 | 0.0 | 0.03 | 0.36 | 0.28 | 89 | 1010.0 |
| 20260507194503 | 13 | 86 | 0.0 | 0.0 | 0.05 | 0.36 | 0.28 | 89 | 1010.0 |
| 20260507193951 | 13 | 86 | 0.0 | 0.0 | 0.05 | 0.36 | 0.28 | 92 | 1010.0 |
| 20260507193443 | 13 | 86 | 0.0 | 0.0 | 0.05 | 0.36 | 0.28 | 92 | 1010.0 |
| 20260507192939 | 13 | 86 | 0.0 | 1.6 | 0.08 | 0.36 | 0.28 | 92 | 1010.2 |
| 20260507192913 | 12 | 86 | 0.0 | 3.2 | 0.10 | 0.36 | 0.28 | 92 | 1010.1 |
| 20260507192145 | 12 | 86 | 0.0 | 3.2 | 0.10 | 0.36 | 0.28 | 94 | 1010.2 |
| 20260507191418 | 12 | 86 | 0.0 | 1.6 | 0.10 | 0.36 | 0.28 | 94 | 1010.2 |
| 20260507190909 | 12 | 86 | 0.0 | 1.6 | 0.10 | 0.36 | 0.28 | 93 | 1010.1 |
| 20260507190404 | 12 | 86 | 0.0 | 1.6 | 0.10 | 0.36 | 0.28 | 94 | 1010.3 |
| 20260507185857 | 12 | 86 | 0.0 | 1.6 | 0.08 | 0.33 | 0.25 | 93 | 1010.4 |
| 20260507185353 | 12 | 69 | 0.0 | 0.0 | 0.10 | 0.33 | 0.25 | 93 | 1010.4 |
| 20260507184848 | 12 | 69 | 0.0 | 0.0 | 0.10 | 0.30 | 0.23 | 93 | 1010.6 |
| 20260507184349 | 12 | 69 | 0.0 | 0.0 | 0.13 | 0.30 | 0.23 | 93 | 1010.6 |
| 20260507183843 | 12 | 69 | 0.0 | 0.0 | 0.13 | 0.30 | 0.23 | 93 | 1010.8 |
| 20260507183339 | 12 | 69 | 0.0 | 3.2 | 0.13 | 0.30 | 0.23 | 93 | 1010.6 |
| 20260507183058 | 12 | 69 | 0.0 | 3.2 | 0.10 | 0.28 | 0.20 | 93 | 1010.6 |
| 20260507182315 | 12 | 69 | 0.0 | 1.6 | 0.08 | 0.25 | 0.18 | 93 | 1010.7 |
| 20260507181805 | 12 | 69 | 0.0 | 0.0 | 0.08 | 0.25 | 0.18 | 93 | 1010.5 |
| 20260507181305 | 12 | 68 | 0.0 | 0.0 | 0.10 | 0.25 | 0.18 | 93 | 1010.6 |
| 20260507180757 | 12 | 69 | 0.0 | 0.0 | 0.10 | 0.25 | 0.18 | 92 | 1010.5 |
| 20260507180520 | 12 | 69 | 0.0 | 0.0 | 0.10 | 0.25 | 0.18 | 93 | 1010.6 |
| 20260507175745 | 12 | 69 | 0.0 | 4.8 | 0.10 | 0.25 | 0.18 | 93 | 1010.5 |
| 20260507175245 | 12 | 69 | 0.0 | 4.8 | 0.08 | 0.23 | 0.15 | 91 | 1010.6 |
| 20260507175007 | 12 | 67 | 0.0 | 4.8 | 0.03 | 0.18 | 0.10 | 92 | 1010.4 |
| 20260507174245 | 12 | 66 | 0.0 | 0.0 | 0.03 | 0.18 | 0.10 | 92 | 1010.6 |
| 20260507173747 | 12 | 66 | 0.0 | 4.8 | 0.03 | 0.18 | 0.10 | 92 | 1010.5 |
| 20260507173219 | 12 | 66 | 1.6 | 4.8 | 0.03 | 0.18 | 0.10 | 93 | 1010.5 |
| 20260507172710 | 12 | 67 | 0.0 | 4.8 | 0.03 | 0.18 | 0.10 | 92 | 1010.3 |
| 20260507172203 | 12 | 65 | 0.0 | 0.0 | 0.05 | 0.18 | 0.10 | 92 | 1010.7 |
| 20260507171653 | 12 | 65 | 0.0 | 0.0 | 0.05 | 0.18 | 0.10 | 91 | 1010.6 |
| 20260507171418 | 12 | 65 | 0.0 | 1.6 | 0.03 | 0.15 | 0.08 | 91 | 1010.5 |
| 20260507170645 | 12 | 65 | 0.0 | 3.2 | 0.05 | 0.15 | 0.08 | 91 | 1010.6 |
| 20260507170414 | 12 | 65 | 0.0 | 3.2 | 0.05 | 0.15 | 0.08 | 91 | 1010.7 |
| 20260507165911 | 12 | 65 | 0.0 | 3.2 | 0.05 | 0.15 | 0.08 | 91 | 1010.6 |
| 20260507165123 | 12 | 65 | 1.6 | 9.7 | 0.05 | 0.15 | 0.08 | 91 | 1010.5 |
| 20260507164621 | 12 | 63 | 1.6 | 9.7 | 0.05 | 0.15 | 0.08 | 90 | 1010.6 |
| 20260507164121 | 12 | 23 | 1.6 | 4.8 | 0.05 | 0.15 | 0.08 | 91 | 1010.6 |
| 20260507163618 | 12 | 21 | 1.6 | 8.0 | 0.05 | 0.15 | 0.08 | 90 | 1010.7 |
| 20260507163119 | 12 | 19 | 0.0 | 8.0 | 0.05 | 0.15 | 0.08 | 90 | 1010.7 |
| 20260507162619 | 12 | 25 | 0.0 | 0.0 | 0.05 | 0.15 | 0.08 | 90 | 1010.7 |
| 20260507162113 | 12 | 25 | 0.0 | 0.0 | 0.03 | 0.13 | 0.05 | 89 | 1010.7 |
| 20260507161555 | 12 | 25 | 1.6 | 9.7 | 0.03 | 0.13 | 0.05 | 88 | 1010.7 |
| 20260507161313 | 13 | 25 | 1.6 | 9.7 | 0.03 | 0.13 | 0.05 | 87 | 1010.7 |
| 20260507160549 | 13 | 51 | 0.0 | 4.8 | 0.00 | 0.10 | 0.03 | 86 | 1011.0 |
| 20260507160047 | 13 | 134 | 0.0 | 0.0 | 0.00 | 0.10 | 0.03 | 87 | 1011.1 |
| 20260507155758 | 13 | 134 | 0.0 | 9.7 | 0.00 | 0.10 | 0.03 | 86 | 1011.2 |
| 20260507155036 | 13 | 134 | 1.6 | 9.7 | 0.00 | 0.10 | 0.03 | 86 | 1011.2 |
| 20260507154535 | 13 | 130 | 1.6 | 9.7 | 0.00 | 0.10 | 0.03 | 85 | 1011.1 |
| 20260507154033 | 13 | 263 | 1.6 | 8.0 | 0.00 | 0.10 | 0.03 | 86 | 1011.2 |
| 20260507153529 | 13 | 317 | 1.6 | 8.0 | 0.00 | 0.10 | 0.03 | 86 | 1011.1 |
| 20260507153029 | 13 | 318 | 1.6 | 8.0 | 0.00 | 0.10 | 0.03 | 85 | 1011.2 |
| 20260507152739 | 13 | 99 | 0.0 | 0.0 | 0.00 | 0.10 | 0.03 | 86 | 1011.0 |
| 20260507152007 | 13 | 99 | 0.0 | 0.0 | 0.00 | 0.10 | 0.03 | 86 | 1011.2 |
| 20260507151505 | 13 | 99 | 0.0 | 0.0 | 0.00 | 0.10 | 0.03 | 85 | 1011.1 |
| 20260507150945 | 13 | 99 | 0.0 | 4.8 | 0.00 | 0.10 | 0.03 | 85 | 1011.0 |
| 20260507150909 | 13 | 99 | 1.6 | 4.8 | 0.00 | 0.10 | 0.03 | 85 | 1011.2 |
| 20260507145916 | 13 | 86 | 1.6 | 4.8 | 0.00 | 0.10 | 0.03 | 84 | 1011.2 |
| 20260507145409 | 13 | 272 | 1.6 | 8.0 | 0.00 | 0.10 | 0.03 | 84 | 1011.2 |
| 20260507144858 | 13 | 16 | 1.6 | 8.0 | 0.00 | 0.10 | 0.03 | 83 | 1011.1 |
| 20260507144358 | 13 | 321 | 1.6 | 8.0 | 0.00 | 0.10 | 0.03 | 83 | 1011.0 |
| 20260507143852 | 13 | 252 | 1.6 | 8.0 | 0.00 | 0.10 | 0.03 | 82 | 1011.1 |
| 20260507143345 | 13 | 315 | 0.0 | 8.0 | 0.00 | 0.10 | 0.03 | 83 | 1011.1 |
| 20260507142845 | 13 | 316 | 1.6 | 9.7 | 0.00 | 0.13 | 0.03 | 82 | 1011.1 |
| 20260507142345 | 13 | 329 | 1.6 | 9.7 | 0.00 | 0.13 | 0.03 | 83 | 1011.0 |
| 20260507141846 | 13 | 11 | 0.0 | 4.8 | 0.00 | 0.13 | 0.03 | 83 | 1011.0 |
| 20260507141337 | 13 | 124 | 0.0 | 3.2 | 0.00 | 0.13 | 0.03 | 84 | 1011.0 |
| 20260507140820 | 13 | 125 | 0.0 | 3.2 | 0.00 | 0.13 | 0.03 | 83 | 1010.9 |
| 20260507140305 | 13 | 126 | 0.0 | 1.6 | 0.00 | 0.13 | 0.03 | 83 | 1011.2 |
| 20260507135800 | 13 | 125 | 0.0 | 3.2 | 0.00 | 0.13 | 0.03 | 84 | 1011.5 |
| 20260507135254 | 13 | 125 | 1.6 | 8.0 | 0.00 | 0.13 | 0.03 | 84 | 1011.6 |
| 20260507134749 | 14 | 122 | 1.6 | 11.3 | 0.00 | 0.13 | 0.03 | 82 | 1011.4 |
| 20260507134245 | 14 | 123 | 1.6 | 11.3 | 0.00 | 0.13 | 0.03 | 82 | 1011.3 |
| 20260507133745 | 14 | 135 | 1.6 | 9.7 | 0.00 | 0.13 | 0.03 | 81 | 1011.2 |
| 20260507133229 | 14 | 150 | 1.6 | 9.7 | 0.00 | 0.13 | 0.03 | 82 | 1011.4 |
| 20260507132725 | 14 | 155 | 1.6 | 11.3 | 0.00 | 0.13 | 0.03 | 81 | 1011.4 |
| 20260507132217 | 14 | 159 | 0.0 | 11.3 | 0.00 | 0.13 | 0.03 | 80 | 1011.5 |
| 20260507131707 | 15 | 181 | 0.0 | 8.0 | 0.00 | 0.13 | 0.03 | 80 | 1011.5 |
| 20260507131205 | 14 | 141 | 1.6 | 3.2 | 0.00 | 0.13 | 0.03 | 80 | 1011.3 |
| 20260507130659 | 14 | 140 | 3.2 | 11.3 | 0.00 | 0.13 | 0.03 | 81 | 1011.2 |
| 20260507130154 | 14 | 149 | 3.2 | 11.3 | 0.00 | 0.13 | 0.03 | 81 | 1011.0 |
| 20260507125649 | 14 | 113 | 3.2 | 16.1 | 0.00 | 0.13 | 0.03 | 80 | 1011.1 |
| 20260507125144 | 14 | 109 | 3.2 | 16.1 | 0.00 | 0.13 | 0.03 | 80 | 1011.0 |
| 20260507124644 | 14 | 56 | 3.2 | 12.9 | 0.00 | 0.13 | 0.03 | 80 | 1011.2 |
| 20260507124145 | 14 | 133 | 3.2 | 9.7 | 0.00 | 0.13 | 0.03 | 81 | 1011.3 |
| 20260507123645 | 14 | 335 | 1.6 | 9.7 | 0.00 | 0.13 | 0.03 | 80 | 1011.5 |
| 20260507123138 | 14 | 344 | 1.6 | 11.3 | 0.00 | 0.13 | 0.03 | 82 | 1011.4 |
| 20260507122852 | 14 | 344 | 1.6 | 11.3 | 0.00 | 0.13 | 0.03 | 81 | 1011.3 |
| 20260507122117 | 14 | 197 | 1.6 | 8.0 | 0.00 | 0.13 | 0.03 | 81 | 1011.4 |
| 20260507121612 | 14 | 197 | 1.6 | 8.0 | 0.00 | 0.13 | 0.03 | 80 | 1011.4 |
| 20260507121113 | 14 | 125 | 1.6 | 9.7 | 0.00 | 0.13 | 0.03 | 81 | 1011.6 |
| 20260507120602 | 14 | 115 | 1.6 | 11.3 | 0.00 | 0.13 | 0.03 | 81 | 1011.4 |
| 20260507115603 | 15 | 111 | 1.6 | 11.3 | 0.00 | 0.15 | 0.03 | 80 | 1011.4 |
| 20260507115103 | 15 | 121 | 1.6 | 9.7 | 0.00 | 0.15 | 0.03 | 80 | 1011.4 |
| 20260507114603 | 15 | 118 | 0.0 | 9.7 | 0.00 | 0.15 | 0.03 | 81 | 1011.3 |
| 20260507114102 | 15 | 138 | 1.6 | 9.7 | 0.00 | 0.15 | 0.03 | 82 | 1011.3 |
| 20260507113603 | 15 | 138 | 3.2 | 12.9 | 0.00 | 0.20 | 0.03 | 81 | 1011.3 |
| 20260507113101 | 15 | 124 | 3.2 | 16.1 | 0.00 | 0.25 | 0.03 | 80 | 1011.0 |
| 20260507112805 | 14 | 121 | 1.6 | 16.1 | 0.00 | 0.28 | 0.03 | 81 | 1010.6 |
| 20260507112049 | 14 | 55 | 0.0 | 0.0 | 0.00 | 0.33 | 0.03 | 82 | 1010.8 |
| 20260507111537 | 14 | 54 | 0.0 | 0.0 | 0.00 | 0.33 | 0.03 | 82 | 1010.7 |
| 20260507111039 | 14 | 119 | 0.0 | 0.0 | 0.00 | 0.33 | 0.03 | 84 | 1010.7 |
| 20260507110515 | 14 | 119 | 0.0 | 0.0 | 0.00 | 0.33 | 0.03 | 85 | 1010.7 |
| 20260507110013 | 14 | 119 | 0.0 | 0.0 | 0.00 | 0.33 | 0.03 | 85 | 1010.7 |
| 20260507105509 | 14 | 119 | 0.0 | 0.0 | 0.00 | 0.33 | 0.03 | 84 | 1010.9 |
| 20260507105009 | 14 | 119 | 0.0 | 0.0 | 0.00 | 0.33 | 0.03 | 84 | 1010.8 |
| 20260507104507 | 14 | 119 | 0.0 | 0.0 | 0.00 | 0.33 | 0.03 | 86 | 1010.7 |
| 20260507103957 | 14 | 119 | 0.0 | 0.0 | 0.00 | 0.33 | 0.03 | 84 | 1010.6 |
| 20260507103455 | 15 | 126 | 0.0 | 0.0 | 0.00 | 0.33 | 0.03 | 83 | 1010.4 |
| 20260507102949 | 15 | 126 | 0.0 | 0.0 | 0.00 | 0.33 | 0.03 | 83 | 1010.4 |
| 20260507102444 | 15 | 125 | 0.0 | 0.0 | 0.00 | 0.33 | 0.03 | 82 | 1010.1 |
| 20260507101937 | 15 | 124 | 0.0 | 0.0 | 0.00 | 0.33 | 0.03 | 81 | 1010.3 |
| 20260507101409 | 15 | 90 | 0.0 | 0.0 | 0.00 | 0.33 | 0.03 | 82 | 1010.2 |
| 20260507100903 | 15 | 57 | 0.0 | 0.0 | 0.00 | 0.33 | 0.03 | 82 | 1010.2 |
| 20260507100345 | 15 | 159 | 0.0 | 0.0 | 0.00 | 0.33 | 0.03 | 83 | 1010.3 |
| 20260507095843 | 15 | 288 | 0.0 | 0.0 | 0.00 | 0.33 | 0.03 | 83 | 1010.6 |
| 20260507095329 | 15 | 169 | 0.0 | 0.0 | 0.00 | 0.33 | 0.03 | 82 | 1010.5 |
| 20260507094831 | 15 | 135 | 0.0 | 0.0 | 0.00 | 0.33 | 0.03 | 82 | 1010.5 |
| 20260507094329 | 15 | 257 | 0.0 | 0.0 | 0.00 | 0.33 | 0.03 | 83 | 1010.4 |
| 20260507093824 | 15 | 257 | 0.0 | 0.0 | 0.00 | 0.33 | 0.03 | 83 | 1010.4 |
| 20260507093318 | 15 | 318 | 0.0 | 0.0 | 0.00 | 0.33 | 0.03 | 83 | 1010.6 |
| 20260507092749 | 15 | 241 | 0.0 | 0.0 | 0.00 | 0.33 | 0.03 | 83 | 1010.5 |
| 20260507092250 | 14 | 84 | 0.0 | 0.0 | 0.00 | 0.33 | 0.03 | 85 | 1010.4 |
| 20260507092016 | 14 | 149 | 0.0 | 0.0 | 0.00 | 0.33 | 0.03 | 85 | 1010.2 |
| 20260507091247 | 14 | 101 | 0.0 | 0.0 | 0.00 | 0.33 | 0.03 | 87 | 1009.9 |
| 20260507090744 | 15 | 101 | 0.0 | 0.0 | 0.00 | 0.33 | 0.03 | 88 | 1010.0 |
| 20260507090245 | 15 | 101 | 0.0 | 0.0 | 0.00 | 0.33 | 0.03 | 87 | 1009.7 |
| 20260507085741 | 15 | 101 | 0.0 | 0.0 | 0.00 | 0.33 | 0.03 | 87 | 1010.1 |
| 20260507085454 | 15 | 130 | 0.0 | 0.0 | 0.00 | 0.33 | 0.03 | 89 | 1010.2 |
| 20260507084717 | 15 | 131 | 0.0 | 0.0 | 0.00 | 0.33 | 0.03 | 88 | 1010.5 |
| 20260507084219 | 15 | 200 | 0.0 | 0.0 | 0.00 | 0.33 | 0.03 | 88 | 1010.4 |
| 20260507083717 | 15 | 104 | 0.0 | 0.0 | 0.00 | 0.33 | 0.03 | 89 | 1010.7 |
| 20260507083215 | 15 | 317 | 0.0 | 0.0 | 0.00 | 0.33 | 0.03 | 90 | 1010.5 |
| 20260507082705 | 15 | 324 | 0.0 | 0.0 | 0.00 | 0.33 | 0.03 | 90 | 1010.4 |
| 20260507082146 | 15 | 323 | 0.0 | 0.0 | 0.00 | 0.33 | 0.03 | 90 | 1010.3 |
| 20260507081647 | 15 | 323 | 0.0 | 0.0 | 0.00 | 0.33 | 0.03 | 91 | 1010.3 |
| 20260507081146 | 15 | 323 | 0.0 | 0.0 | 0.00 | 0.33 | 0.03 | 91 | 1010.3 |
| 20260507080637 | 15 | 296 | 0.0 | 0.0 | 0.00 | 0.33 | 0.03 | 91 | 1010.2 |
| 20260507080135 | 15 | 257 | 0.0 | 0.0 | 0.00 | 0.33 | 0.03 | 92 | 1010.2 |
| 20260507075624 | 15 | 346 | 0.0 | 0.0 | 0.00 | 0.33 | 0.03 | 92 | 1010.4 |
| 20260507075109 | 15 | 318 | 0.0 | 0.0 | 0.00 | 0.33 | 0.03 | 92 | 1010.5 |
| 20260507074550 | 15 | 316 | 0.0 | 0.0 | 0.00 | 0.33 | 0.03 | 93 | 1010.5 |
| 20260507074316 | 15 | 316 | 0.0 | 0.0 | 0.00 | 0.33 | 0.03 | 92 | 1010.3 |
| 20260507073549 | 15 | 314 | 0.0 | 0.0 | 0.00 | 0.33 | 0.03 | 93 | 1010.3 |
| 20260507073046 | 15 | 311 | 0.0 | 0.0 | 0.00 | 0.33 | 0.03 | 94 | 1010.1 |
| 20260507072545 | 15 | 310 | 0.0 | 0.0 | 0.00 | 0.33 | 0.03 | 95 | 1010.1 |
| 20260507072042 | 15 | 311 | 0.0 | 0.0 | 0.00 | 0.33 | 0.03 | 96 | 1010.2 |
| 20260507071535 | 15 | 311 | 0.0 | 0.0 | 0.00 | 0.33 | 0.03 | 96 | 1010.2 |
| 20260507071035 | 15 | 311 | 0.0 | 0.0 | 0.00 | 0.33 | 0.03 | 96 | 1009.6 |
| 20260507070523 | 15 | 311 | 0.0 | 0.0 | 0.00 | 0.33 | 0.03 | 96 | 1010.4 |
| 20260507070017 | 15 | 16 | 0.0 | 0.0 | 0.00 | 0.33 | 0.03 | 96 | 1010.2 |
| 20260507065458 | 15 | 17 | 0.0 | 0.0 | 0.00 | 0.33 | 0.03 | 97 | 1010.3 |
| 20260507064955 | 15 | 17 | 0.0 | 0.0 | 0.00 | 0.33 | 0.03 | 97 | 1010.3 |
| 20260507064448 | 15 | 17 | 0.0 | 0.0 | 0.00 | 0.33 | 0.03 | 97 | 1010.2 |
| 20260507063945 | 15 | 17 | 0.0 | 0.0 | 0.00 | 0.33 | 0.03 | 97 | 1010.4 |
| 20260507063438 | 15 | 314 | 0.0 | 0.0 | 0.00 | 0.33 | 0.03 | 97 | 1010.2 |
| 20260507062931 | 15 | 345 | 0.0 | 0.0 | 0.00 | 0.33 | 0.03 | 97 | 1009.8 |
| 20260507062427 | 15 | 0 | 0.0 | 0.0 | 0.00 | 0.33 | 0.03 | 97 | 1010.3 |
| 20260507062134 | 16 | 0 | 0.0 | 0.0 | 0.00 | 0.33 | 0.03 | 97 | 1010.3 |
| 20260507061618 | 16 | 310 | 0.0 | 0.0 | 0.00 | 0.33 | 0.03 | 97 | 1010.2 |
| 20260507061112 | 16 | 310 | 0.0 | 0.0 | 0.00 | 0.33 | 0.03 | 98 | 1010.3 |
| 20260507060347 | 16 | 310 | 0.0 | 0.0 | 0.00 | 0.33 | 0.03 | 97 | 1010.5 |
| 20260507055329 | 16 | 310 | 0.0 | 0.0 | 0.00 | 0.33 | 0.03 | 97 | 1010.4 |
| 20260507054828 | 16 | 310 | 0.0 | 0.0 | 0.03 | 0.33 | 0.03 | 97 | 1010.8 |
| 20260507054317 | 16 | 310 | 0.0 | 0.0 | 0.03 | 0.33 | 0.03 | 97 | 1010.9 |
| 20260507053809 | 16 | 310 | 0.0 | 0.0 | 0.03 | 0.33 | 0.03 | 97 | 1010.8 |
| 20260507053307 | 16 | 310 | 0.0 | 0.0 | 0.03 | 0.33 | 0.03 | 97 | 1011.1 |
| 20260507052753 | 16 | 310 | 0.0 | 0.0 | 0.03 | 0.33 | 0.03 | 97 | 1011.3 |
| 20260507052252 | 16 | 310 | 0.0 | 0.0 | 0.03 | 0.33 | 0.03 | 97 | 1010.8 |
| 20260507052014 | 16 | 310 | 0.0 | 0.0 | 0.03 | 0.33 | 0.03 | 97 | 1010.7 |
| 20260507051240 | 16 | 309 | 0.0 | 0.0 | 0.03 | 0.33 | 0.03 | 97 | 1010.7 |
| 20260507050738 | 16 | 309 | 0.0 | 0.0 | 0.03 | 0.33 | 0.03 | 97 | 1010.6 |
| 20260507050238 | 16 | 310 | 0.0 | 0.0 | 0.03 | 0.33 | 0.03 | 97 | 1010.4 |
| 20260507045722 | 16 | 309 | 0.0 | 0.0 | 0.03 | 0.33 | 0.03 | 97 | 1010.2 |
| 20260507045436 | 16 | 310 | 0.0 | 0.0 | 0.03 | 0.33 | 0.03 | 97 | 1010.2 |
| 20260507044711 | 16 | 310 | 0.0 | 0.0 | 0.00 | 0.30 | 0.00 | 97 | 1010.1 |
| 20260507044424 | 16 | 310 | 0.0 | 0.0 | 0.00 | 0.30 | 0.00 | 97 | 1010.2 |